Location: Phoenix
(33.4480°N, 112.0730°W)
Time: 06:45:46
(UTC-07:00)

ISS - All Passes

Search period start: 23 June 2017 00:00
Search period end: 03 July 2017 00:00
Orbit: 401 x 408 km, 51.6° (Epoch: 23 June)

Date Brightness Start Highest point End Pass type
(mag) Time Alt. Az. Time Alt. Az. Time Alt. Az.
23 Jun - 08:57:55 10° SW 09:01:09 65° NW 09:04:25 10° NE daylight
23 Jun - 15:29:23 10° NNW 15:31:59 21° NE 15:34:35 10° E daylight
23 Jun - 17:05:33 10° WNW 17:08:29 30° SW 17:11:25 10° SSE daylight
24 Jun - 08:05:49 10° SSW 08:09:00 53° SE 08:12:12 10° NE daylight
24 Jun - 09:43:45 10° WNW 09:45:42 15° NNW 09:47:40 10° N daylight
24 Jun - 14:37:59 10° N 14:39:35 13° NNE 14:41:10 10° ENE daylight
24 Jun - 16:13:06 10° NW 16:16:23 71° SW 16:19:39 10° SE daylight
25 Jun - 07:14:15 10° S 07:16:55 24° SE 07:19:36 10° ENE daylight
25 Jun - 08:50:33 10° W 08:53:19 25° NW 08:56:06 10° NNE daylight
25 Jun - 15:20:58 10° NW 15:24:11 50° NE 15:27:24 10° ESE daylight
25 Jun - 16:59:22 10° WSW 17:00:18 11° SW 17:01:14 10° SW daylight
26 Jun - 06:23:52 10° SE 06:24:54 11° SE 06:25:55 10° ESE daylight
26 Jun - 07:57:51 10° WSW 08:01:01 48° NW 08:04:12 10° NE daylight
26 Jun - 14:29:04 10° NNW 14:31:53 26° NE 14:34:42 10° E daylight
26 Jun - 16:05:36 10° WNW 16:08:17 23° SW 16:10:56 10° S daylight
27 Jun - 07:05:33 10° SW 07:08:48 73° SE 07:12:03 10° NE daylight
27 Jun - 08:44:08 10° WNW 08:45:36 12° NNW 08:47:05 10° N daylight
27 Jun - 13:37:26 10° N 13:39:28 15° NNE 13:41:30 10° ENE daylight
27 Jun - 15:12:57 10° NW 15:16:10 51° SW 15:19:21 10° SSE daylight
28 Jun - 06:13:44 10° SSW 06:16:39 31° SE 06:19:34 10° ENE daylight
28 Jun - 07:50:37 10° W 07:53:09 20° NW 07:55:41 10° NNE daylight
28 Jun - 14:20:41 10° NW 14:23:57 68° NE 14:27:13 10° SE daylight
29 Jun - 05:22:40 10° SSE 05:24:34 15° SE 05:26:28 10° E daylight
29 Jun - 06:57:43 10° WSW 07:00:46 37° NW 07:03:51 10° NNE daylight
29 Jun - 13:28:39 10° NNW 13:31:39 32° NE 13:34:38 10° ESE daylight
29 Jun - 15:05:38 10° W 15:07:56 18° SW 15:10:14 10° S daylight
30 Jun - 06:05:14 10° SW 06:08:29 83° NW 06:11:45 10° NE daylight
30 Jun - 07:44:42 10° NW 07:45:24 10° NNW 07:46:07 10° NNW daylight
30 Jun - 12:36:52 10° NNW 12:39:14 18° NNE 12:41:36 10° E daylight
30 Jun - 14:12:43 10° WNW 14:15:49 38° SW 14:18:53 10° SSE daylight
01 Jul - 05:13:11 10° SSW 05:16:16 41° SE 05:19:22 10° ENE daylight
01 Jul - 06:50:39 10° WNW 06:52:53 17° NNW 06:55:07 10° N daylight
01 Jul - 11:45:39 10° N 11:46:43 11° NNE 11:47:46 10° NE daylight
01 Jul - 13:20:18 10° NW 13:23:36 90° WNW 13:26:53 10° SE daylight
02 Jul - 04:21:44 10° S 04:24:08 19° SE 04:26:31 10° E visible
02 Jul - 05:57:31 10° W 06:00:25 29° NW 06:03:21 10° NNE daylight
02 Jul - 12:28:09 10° NNW 12:31:17 40° NE 12:34:24 10° ESE daylight
02 Jul - 14:05:44 10° W 14:07:28 14° SW 14:09:12 10° SSW daylight
